This is the latest recevied weather packets stored in our database for station/object EA3ANS-1. If no packets are shown the sender has not sent any weather packets the latest 10 day(s).
| Time | Temp. | Humidity | Pressure | Rain* | Wind** | Luminosity | Snow |
|---|---|---|---|---|---|---|---|
| 1777731170 | 21.11° C | - | 1019.9 hPa | 0 mm | 2.24 m/s, 146° | - | - |
| 1777730566 | 20° C | - | 1020.2 hPa | 0 mm | 2.68 m/s, 158° | - | - |
| 1777729967 | 20.56° C | - | 1020.3 hPa | 0 mm | 2.24 m/s, 138° | - | - |
| 1777729366 | 20° C | - | 1020.4 hPa | 0 mm | 1.79 m/s, 163° | - | - |
| 1777728769 | 20.56° C | - | 1020.5 hPa | 0 mm | 2.24 m/s, 163° | - | - |
| 1777728165 | 20.56° C | - | 1020.7 hPa | 0 mm | 3.13 m/s, 143° | - | - |
| 1777727567 | 20.56° C | - | 1020.7 hPa | 0 mm | 3.13 m/s, 177° | - | - |
| 1777726969 | 20.56° C | - | 1020.6 hPa | 0 mm | 2.68 m/s, 167° | - | - |
| 1777726365 | 20.56° C | - | 1020.7 hPa | 0 mm | 3.58 m/s, 124° | - | - |
| 1777725768 | 21.11° C | - | 1020.7 hPa | 0 mm | 3.58 m/s, 132° | - | - |
| 1777725165 | 21.11° C | - | 1020.7 hPa | 0 mm | 0.89 m/s, 136° | - | - |
| 1777724566 | 21.11° C | - | 1020.9 hPa | 0 mm | 1.79 m/s, 125° | - | - |
| 1777723966 | 20.56° C | - | 1021 hPa | 0 mm | 1.79 m/s, 165° | - | - |
| 1777723365 | 20.56° C | - | 1021.1 hPa | 0 mm | 0.89 m/s, 134° | - | - |
| 1777722767 | 20.56° C | - | 1021.1 hPa | 0 mm | 2.24 m/s, 73° | - | - |
| 1777722162 | 20.56° C | - | 1021.2 hPa | 0 mm | 0 m/s | - | - |
| 1777721563 | 21.11° C | - | 1021.2 hPa | 0 mm | 1.34 m/s, 90° | - | - |
| 1777720963 | 20.56° C | - | 1021.4 hPa | 0 mm | 1.34 m/s, 38° | - | - |
| 1777720364 | 20° C | - | 1021.5 hPa | 0 mm | 1.34 m/s, 70° | - | - |
| 1777719763 | 20.56° C | - | 1021.6 hPa | 0 mm | 0.89 m/s, 148° | - | - |
| 1777719166 | 20° C | - | 1021.7 hPa | 0 mm | 1.34 m/s, 204° | - | - |
| 1777718569 | 19.44° C | - | 1021.7 hPa | 0 mm | 0.45 m/s, 121° | - | - |
| 1777717964 | 19.44° C | - | 1021.8 hPa | 0 mm | 0.89 m/s, 104° | - | - |
| 1777717364 | 19.44° C | - | 1022 hPa | 0 mm | 0.45 m/s, 135° | - | - |
| 1777716762 | 19.44° C | - | 1022.2 hPa | 0 mm | 1.34 m/s, 134° | - | - |
* Rain latest hour (hover to see other rain measurements)
** Current wind speed in m/s (hover to see current wind gust speed)